INMARSAT 5-F1

Last updated on Sept. 28, 2020, 5:45 a.m. UTC

1 39476U 13073A   20271.85882973  .00000006  00000-0  00000-0 0  9991
2 39476   0.0253 179.4901 0000386 261.2611 298.1333  1.00268882 24648
UTC
Height (km)
Latitude
Longitude
Inclination
Orbital Period
UTC large
Height (km)
Speed (km/s)
/
Latitude / Longitude
Inclination (degrees)
Orbital Period (minutes)
Azimuth
Elevation
Range (km)
Doppler Factor
iOS Compass Heading
iOS Angle

Next 30 passes for location: Hong Kong

Rise time Rise Azimuth (degrees) Set time Set Azimuth (degrees) Duration Max altitude (degrees)

No matching passes for this satellites